| time (UTC) | temp C | wind direction | speed KPH | gust KPH | rain 1hr cm | rain 24hr cm | rain mn cm | humidity % | barometer mb |
| 20260903210016 | 33 | 253 | 1.6 | 12.9 | 0.00 | 0.00 | 0.00 | 18 | 1000.7 |
| 20260903204514 | 32 | 144 | 3.2 | 14.5 | 0.00 | 0.00 | 0.00 | 18 | 1000.9 |
| 20260903203012 | 32 | 261 | 1.6 | 9.7 | 0.00 | 0.00 | 0.00 | 18 | 1001.1 |
| 20260903201510 | 32 | 284 | 4.8 | 11.3 | 0.00 | 0.00 | 0.00 | 18 | 1001.3 |
| 20260903200009 | 32 | 144 | 8.0 | 14.5 | 0.00 | 0.00 | 0.00 | 18 | 1001.6 |
| 20260903194506 | 31 | 223 | 3.2 | 11.3 | 0.00 | 0.00 | 0.00 | 19 | 1001.6 |
| 20260903193004 | 31 | 280 | 3.2 | 12.9 | 0.00 | 0.00 | 0.00 | 19 | 1002.0 |
| 20260903191503 | 31 | 128 | 1.6 | 14.5 | 0.00 | 0.00 | 0.00 | 21 | 1002.2 |
| 20260903190101 | 31 | 161 | 6.4 | 17.7 | 0.00 | 0.00 | 0.00 | 20 | 1002.3 |
| 20260903184603 | 31 | 38 | 1.6 | 12.9 | 0.00 | 0.00 | 0.00 | 20 | 1002.5 |
| 20260903183056 | 30 | 345 | 1.6 | 8.0 | 0.00 | 0.00 | 0.00 | 20 | 1002.7 |
| 20260903181554 | 30 | 209 | 4.8 | 14.5 | 0.00 | 0.00 | 0.00 | 22 | 1002.9 |
| 20260903180105 | 30 | 182 | 8.0 | 12.9 | 0.00 | 0.00 | 0.00 | 21 | 1003.1 |
| 20260903174609 | 30 | 1 | 4.8 | 8.0 | 0.00 | 0.00 | 0.00 | 22 | 1003.2 |
| 20260903173055 | 30 | 18 | 3.2 | 8.0 | 0.00 | 0.00 | 0.00 | 23 | 1003.4 |
| 20260903171551 | 29 | 284 | 6.4 | 11.3 | 0.00 | 0.00 | 0.00 | 23 | 1003.5 |
| 20260903170106 | 30 | 216 | 4.8 | 9.7 | 0.00 | 0.00 | 0.00 | 23 | 1003.4 |
| 20260903164552 | 28 | 313 | 0.0 | 6.4 | 0.00 | 0.00 | 0.00 | 24 | 1003.5 |
| 20260903163045 | 28 | 149 | 6.4 | 14.5 | 0.00 | 0.00 | 0.00 | 25 | 1003.6 |
| 20260903161544 | 28 | 138 | 1.6 | 11.3 | 0.00 | 0.00 | 0.00 | 26 | 1003.6 |
| 20260903160046 | 28 | 250 | 1.6 | 8.0 | 0.00 | 0.00 | 0.00 | 25 | 1003.7 |
| 20260903154540 | 27 | 53 | 4.8 | 14.5 | 0.00 | 0.00 | 0.00 | 26 | 1003.9 |
| 20260903153044 | 27 | 153 | 1.6 | 6.4 | 0.00 | 0.00 | 0.00 | 28 | 1003.9 |
| 20260903151544 | 26 | 281 | 0.0 | 4.8 | 0.00 | 0.00 | 0.00 | 28 | 1004.1 |
| 20260903150030 | 25 | 351 | 0.0 | 6.4 | 0.00 | 0.00 | 0.00 | 30 | 1004.2 |
| 20260903144628 | 25 | 327 | 1.6 | 4.8 | 0.00 | 0.00 | 0.00 | 31 | 1004.4 |
| 20260903143025 | 23 | 22 | 3.2 | 11.3 | 0.00 | 0.00 | 0.00 | 34 | 1004.2 |
| 20260903141523 | 23 | 87 | 6.4 | 12.9 | 0.00 | 0.00 | 0.00 | 35 | 1004.4 |
| 20260903140022 | 22 | 292 | 0.0 | 14.5 | 0.00 | 0.00 | 0.00 | 36 | 1004.3 |
| 20260903134520 | 21 | 88 | 3.2 | 11.3 | 0.00 | 0.00 | 0.00 | 38 | 1004.4 |
| 20260903133018 | 18 | 82 | 4.8 | 8.0 | 0.00 | 0.00 | 0.00 | 49 | 1004.2 |
| 20260903131517 | 17 | 244 | 0.0 | 1.6 | 0.00 | 0.00 | 0.00 | 51 | 1004.0 |
| 20260903130014 | 17 | 167 | 0.0 | 0.0 | 0.00 | 0.00 | 0.00 | 49 | 1004.1 |
| 20260903124512 | 17 | 49 | 0.0 | 6.4 | 0.00 | 0.00 | 0.00 | 52 | 1004.0 |
| 20260903123011 | 17 | 103 | 3.2 | 9.7 | 0.00 | 0.00 | 0.00 | 53 | 1003.9 |
| 20260903121507 | 17 | 351 | 0.0 | 1.6 | 0.00 | 0.00 | 0.00 | 43 | 1003.5 |
| 20260903120004 | 18 | 351 | 0.0 | 0.0 | 0.00 | 0.00 | 0.00 | 41 | 1003.3 |
| 20260903114502 | 18 | 351 | 0.0 | 0.0 | 0.00 | 0.00 | 0.00 | 39 | 1003.3 |
| 20260903113001 | 18 | 351 | 0.0 | 0.0 | 0.00 | 0.00 | 0.00 | 41 | 1003.2 |
| 20260903111625 | 19 | 351 | 0.0 | 0.0 | 0.00 | 0.00 | 0.00 | 39 | 1003.1 |
| 20260903110110 | 19 | 351 | 1.6 | 4.8 | 0.00 | 0.00 | 0.00 | 41 | 1003.1 |
| 20260903104622 | 20 | 351 | 0.0 | 3.2 | 0.00 | 0.00 | 0.00 | 37 | 1003.1 |
| 20260903103051 | 21 | 7 | 4.8 | 6.4 | 0.00 | 0.00 | 0.00 | 36 | 1003.2 |
| 20260903101551 | 22 | 351 | 1.6 | 9.7 | 0.00 | 0.00 | 0.00 | 33 | 1003.2 |
| 20260903100050 | 22 | 356 | 1.6 | 8.0 | 0.00 | 0.00 | 0.00 | 34 | 1003.2 |
| 20260903094558 | 22 | 82 | 4.8 | 8.0 | 0.00 | 0.00 | 0.00 | 33 | 1003.3 |
| 20260903093049 | 22 | 215 | 1.6 | 9.7 | 0.00 | 0.00 | 0.00 | 33 | 1003.1 |
| 20260903091547 | 21 | 223 | 1.6 | 9.7 | 0.00 | 0.00 | 0.00 | 35 | 1003.0 |
| 20260903090050 | 21 | 234 | 6.4 | 12.9 | 0.00 | 0.00 | 0.00 | 36 | 1003.1 |
| 20260903084544 | 21 | 301 | 0.0 | 4.8 | 0.00 | 0.00 | 0.00 | 37 | 1003.1 |
| 20260903083044 | 21 | 123 | 0.0 | 6.4 | 0.00 | 0.00 | 0.00 | 39 | 1003.2 |
| 20260903081543 | 21 | 161 | 1.6 | 8.0 | 0.00 | 0.00 | 0.00 | 37 | 1003.0 |
| 20260903080041 | 22 | 180 | 0.0 | 8.0 | 0.00 | 0.00 | 0.00 | 37 | 1002.9 |
| 20260903074540 | 24 | 234 | 3.2 | 8.0 | 0.00 | 0.00 | 0.00 | 30 | 1003.1 |
| 20260903073045 | 23 | 284 | 1.6 | 8.0 | 0.00 | 0.00 | 0.00 | 31 | 1003.0 |
| 20260903071537 | 23 | 305 | 6.4 | 12.9 | 0.00 | 0.00 | 0.00 | 30 | 1003.1 |
| 20260903070039 | 22 | 315 | 3.2 | 8.0 | 0.00 | 0.00 | 0.00 | 31 | 1003.2 |
| 20260903064532 | 22 | 333 | 3.2 | 9.7 | 0.00 | 0.00 | 0.00 | 31 | 1003.2 |
| 20260903063030 | 22 | 15 | 3.2 | 9.7 | 0.00 | 0.00 | 0.00 | 32 | 1003.3 |
| 20260903061537 | 22 | 30 | 1.6 | 6.4 | 0.00 | 0.00 | 0.00 | 32 | 1003.2 |
| 20260903060029 | 22 | 238 | 0.0 | 3.2 | 0.00 | 0.00 | 0.00 | 31 | 1002.9 |
| 20260903054524 | 23 | 238 | 0.0 | 3.2 | 0.00 | 0.00 | 0.00 | 28 | 1002.8 |
| 20260903053023 | 23 | 236 | 0.0 | 4.8 | 0.00 | 0.00 | 0.00 | 28 | 1002.7 |
| 20260903051523 | 23 | 196 | 0.0 | 4.8 | 0.00 | 0.00 | 0.00 | 27 | 1002.7 |
| 20260903050023 | 22 | 33 | 0.0 | 0.0 | 0.00 | 0.00 | 0.00 | 28 | 1002.6 |
| 20260903044522 | 22 | 33 | 0.0 | 0.0 | 0.00 | 0.00 | 0.00 | 28 | 1002.5 |
| 20260903043021 | 22 | 33 | 0.0 | 0.0 | 0.00 | 0.00 | 0.00 | 27 | 1002.4 |
| 20260903041526 | 22 | 35 | 0.0 | 1.6 | 0.00 | 0.00 | 0.00 | 28 | 1002.3 |
| 20260903040021 | 23 | 197 | 0.0 | 0.0 | 0.00 | 0.00 | 0.00 | 27 | 1002.3 |
| 20260903034521 | 24 | 197 | 0.0 | 1.6 | 0.00 | 0.00 | 0.00 | 26 | 1002.3 |
| 20260903033019 | 25 | 197 | 0.0 | 1.6 | 0.00 | 0.00 | 0.00 | 24 | 1002.1 |
| 20260903031523 | 25 | 187 | 1.6 | 6.4 | 0.00 | 0.00 | 0.00 | 25 | 1002.0 |
| 20260903030029 | 26 | 211 | 1.6 | 6.4 | 0.00 | 0.00 | 0.00 | 24 | 1001.7 |
| 20260903024518 | 26 | 219 | 0.0 | 4.8 | 0.00 | 0.00 | 0.00 | 26 | 1001.4 |
| 20260903023018 | 27 | 219 | 0.0 | 11.3 | 0.00 | 0.00 | 0.00 | 26 | 1001.2 |
| 20260903021517 | 28 | 238 | 1.6 | 9.7 | 0.00 | 0.00 | 0.00 | 25 | 1000.9 |
| 20260903020017 | 28 | 49 | 3.2 | 6.4 | 0.00 | 0.00 | 0.00 | 22 | 1000.8 |
| 20260903014516 | 29 | 50 | 8.0 | 11.3 | 0.00 | 0.00 | 0.00 | 21 | 1000.6 |
| 20260903013027 | 29 | 45 | 6.4 | 11.3 | 0.00 | 0.00 | 0.00 | 21 | 1000.6 |
| 20260903011516 | 30 | 41 | 6.4 | 17.7 | 0.00 | 0.00 | 0.00 | 20 | 1000.7 |
| 20260903010027 | 30 | 57 | 9.7 | 16.1 | 0.00 | 0.00 | 0.00 | 19 | 1000.8 |
| 20260903004513 | 31 | 44 | 4.8 | 14.5 | 0.00 | 0.00 | 0.00 | 19 | 1000.9 |
| 20260903003015 | 31 | 70 | 6.4 | 16.1 | 0.00 | 0.00 | 0.00 | 18 | 1000.7 |
| 20260903001513 | 32 | 58 | 8.0 | 16.1 | 0.00 | 0.00 | 0.00 | 17 | 1000.8 |
| 20260903000012 | 32 | 63 | 9.7 | 16.1 | 0.00 | 0.00 | 0.00 | 17 | 1000.8 |
| 20260902234519 | 32 | 72 | 6.4 | 24.1 | 0.00 | 0.00 | 0.00 | 17 | 1000.8 |
| 20260902233010 | 32 | 90 | 6.4 | 24.1 | 0.00 | 0.00 | 0.00 | 17 | 1000.9 |
| 20260902231508 | 32 | 20 | 9.7 | 20.9 | 0.00 | 0.00 | 0.00 | 17 | 1001.2 |
| 20260902230006 | 32 | 57 | 11.3 | 17.7 | 0.00 | 0.00 | 0.00 | 17 | 1001.4 |
| 20260902224505 | 32 | 36 | 6.4 | 22.5 | 0.00 | 0.00 | 0.00 | 17 | 1001.5 |
| 20260902223002 | 32 | 33 | 6.4 | 17.7 | 0.00 | 0.00 | 0.00 | 18 | 1001.7 |
| 20260902221501 | 32 | 70 | 1.6 | 14.5 | 0.00 | 0.00 | 0.00 | 18 | 1001.7 |
| 20260902214602 | 31 | 130 | 11.3 | 24.1 | 0.00 | 0.00 | 0.00 | 18 | 1002.1 |
| 20260902213056 | 32 | 149 | 4.8 | 11.3 | 0.00 | 0.00 | 0.00 | 18 | 1002.3 |
| 20260902211556 | 32 | 132 | 6.4 | 20.9 | 0.00 | 0.00 | 0.00 | 19 | 1002.4 |